When you browse on this site, cookies collect data to enhance your experience and personalize the content and advertising you see.
Visit our Privacy Policy to learn more. By continuing to use the site, you agree to this use of cookies and data.
  • In Austria
  • List of Countries
  • For 7 days
  • Water Temperature
  • Weather Map
  • News
  • Weather Widgets
  • user-avatar
    Login

    Hourly Weather Chechelnik

    Today, 15 September, Sunday

    Time Temperature Precipitation Wind Pressure Humidity
    00:00 +11°C° 0 mm 3 mps 749 mmHg 64%
    01:00 +10°C° 0 mm 3 mps 749 mmHg 66%
    02:00 +10°C° 0 mm 3 mps 749 mmHg 67%
    03:00 +10°C° 0 mm 2 mps 749 mmHg 69%
    04:00 +9°C° 0 mm 2 mps 749 mmHg 71%
    05:00 +9°C° 0 mm 2 mps 749 mmHg 72%
    06:00 +10°C° 0 mm 2 mps 749 mmHg 66%
    07:00 +13°C° 0 mm 2 mps 749 mmHg 60%
    08:00 +15°C° 0 mm 2 mps 750 mmHg 54%
    09:00 +16°C° 0 mm 2 mps 749 mmHg 48%
    10:00 +18°C° 0 mm 2 mps 749 mmHg 41%
    11:00 +20°C° 0 mm 2 mps 749 mmHg 34%
    12:00 +20°C° 0 mm 3 mps 749 mmHg 31%
    13:00 +21°C° 0 mm 3 mps 748 mmHg 28%
    14:00 +22°C° 0 mm 3 mps 748 mmHg 25%
    15:00 +22°C° 0 mm 3 mps 747 mmHg 25%
    16:00 +22°C° 0 mm 3 mps 746 mmHg 25%
    17:00 +22°C° 0 mm 3 mps 746 mmHg 25%
    18:00 +19°C° 0 mm 3 mps 746 mmHg 29%
    19:00 +17°C° 0 mm 2 mps 745 mmHg 33%
    20:00 +15°C° 0 mm 2 mps 745 mmHg 38%
    21:00 +15°C° 0 mm 2 mps 745 mmHg 40%
    22:00 +14°C° 0 mm 2 mps 744 mmHg 42%
    23:00 +14°C° 0 mm 2 mps 744 mmHg 44%

    Tomorrow, 16 September, Monday

    Time Temperature Precipitation Wind Pressure Humidity
    00:00 +14°C° 0 mm 2 mps 744 mmHg 45%
    01:00 +13°C° 0 mm 2 mps 744 mmHg 46%
    02:00 +12°C° 0 mm 3 mps 743 mmHg 47%
    03:00 +12°C° 0 mm 3 mps 743 mmHg 49%
    04:00 +11°C° 0 mm 3 mps 742 mmHg 51%
    05:00 +11°C° 0 mm 3 mps 742 mmHg 54%
    06:00 +13°C° 0 mm 3 mps 742 mmHg 49%
    07:00 +16°C° 0 mm 3 mps 742 mmHg 45%
    08:00 +18°C° 0 mm 3 mps 742 mmHg 41%
    09:00 +20°C° 0 mm 3 mps 742 mmHg 38%
    10:00 +22°C° 0 mm 4 mps 742 mmHg 36%
    11:00 +25°C° 0 mm 5 mps 741 mmHg 34%
    12:00 +26°C° 0 mm 5 mps 741 mmHg 32%
    13:00 +27°C° 0 mm 5 mps 740 mmHg 31%
    14:00 +28°C° 0 mm 5 mps 740 mmHg 29%
    15:00 +27°C° 0 mm 5 mps 739 mmHg 30%
    16:00 +26°C° 0 mm 5 mps 739 mmHg 32%
    17:00 +26°C° 0 mm 5 mps 739 mmHg 33%
    18:00 +22°C° 0 mm 3 mps 739 mmHg 39%
    19:00 +20°C° 0 mm 2 mps 739 mmHg 45%
    20:00 +19°C° 0 mm 1 mps 739 mmHg 51%
    21:00 +17°C° 0 mm 2 mps 738 mmHg 54%
    22:00 +17°C° 0 mm 2 mps 738 mmHg 56%
    23:00 +16°C° 0 mm 2 mps 738 mmHg 58%

    Day after tomorrow, 17 September, Tuesday

    Time Temperature Precipitation Wind Pressure Humidity
    00:00 +16°C° 0 mm 2 mps 738 mmHg 64%
    01:00 +15°C° 0 mm 2 mps 738 mmHg 70%
    02:00 +15°C° 0 mm 1 mps 738 mmHg 76%
    03:00 +15°C° 0 mm 1 mps 737 mmHg 76%
    04:00 +15°C° 0 mm 1 mps 737 mmHg 77%
    05:00 +15°C° 0 mm 1 mps 737 mmHg 77%
    06:00 +15°C° 0.1 mm 1 mps 736 mmHg 75%
    07:00 +16°C° 0.1 mm 1 mps 736 mmHg 73%
    08:00 +17°C° 0.1 mm 2 mps 736 mmHg 72%
    09:00 +17°C° 0.3 mm 2 mps 736 mmHg 74%
    10:00 +17°C° 0.3 mm 2 mps 737 mmHg 76%
    11:00 +17°C° 0.3 mm 3 mps 737 mmHg 78%
    12:00 +17°C° 0.1 mm 3 mps 737 mmHg 74%
    13:00 +18°C° 0.1 mm 4 mps 737 mmHg 70%
    14:00 +19°C° 0.1 mm 5 mps 737 mmHg 66%
    15:00 +17°C° 0 mm 5 mps 736 mmHg 62%
    16:00 +18°C° 0 mm 4 mps 736 mmHg 58%
    17:00 +18°C° 0 mm 4 mps 736 mmHg 54%
    18:00 +15°C° 0 mm 4 mps 736 mmHg 58%
    19:00 +14°C° 0 mm 3 mps 736 mmHg 62%
    20:00 +13°C° 0 mm 3 mps 736 mmHg 66%
    21:00 +13°C° 0 mm 3 mps 736 mmHg 65%
    22:00 +13°C° 0 mm 3 mps 736 mmHg 63%
    23:00 +13°C° 0 mm 3 mps 736 mmHg 61%

    18 September, Wednesday

    Time Temperature Precipitation Wind Pressure Humidity
    00:00 +12°C° 0 mm 3 mps 736 mmHg 63%
    01:00 +12°C° 0 mm 4 mps 736 mmHg 64%
    02:00 +11°C° 0 mm 4 mps 736 mmHg 66%
    03:00 +11°C° 0 mm 4 mps 737 mmHg 64%
    04:00 +11°C° 0 mm 4 mps 737 mmHg 62%
    05:00 +11°C° 0 mm 4 mps 737 mmHg 61%
    06:00 +10°C° 0 mm 5 mps 737 mmHg 59%
    07:00 +11°C° 0 mm 6 mps 738 mmHg 57%
    08:00 +11°C° 0 mm 7 mps 738 mmHg 54%
    09:00 +12°C° 0 mm 8 mps 739 mmHg 47%
    10:00 +13°C° 0 mm 8 mps 739 mmHg 40%
    11:00 +15°C° 0 mm 9 mps 740 mmHg 33%
    12:00 +16°C° 0 mm 9 mps 740 mmHg 32%
    13:00 +16°C° 0 mm 8 mps 740 mmHg 30%
    14:00 +17°C° 0 mm 8 mps 740 mmHg 29%
    15:00 +16°C° 0 mm 8 mps 740 mmHg 32%
    16:00 +15°C° 0 mm 8 mps 740 mmHg 36%
    17:00 +14°C° 0 mm 7 mps 741 mmHg 40%
    18:00 +11°C° 0 mm 6 mps 741 mmHg 47%
    19:00 +10°C° 0 mm 4 mps 742 mmHg 54%
    20:00 +8°C° 0 mm 3 mps 742 mmHg 61%
    21:00 +7°C° 0 mm 3 mps 743 mmHg 64%
    22:00 +7°C° 0 mm 3 mps 743 mmHg 68%
    23:00 +5°C° 0 mm 3 mps 743 mmHg 71%

    19 September, Thursday

    Time Temperature Precipitation Wind Pressure Humidity
    00:00 +5°C° 0 mm 3 mps 743 mmHg 72%
    01:00 +5°C° 0 mm 3 mps 743 mmHg 74%
    02:00 +4°C° 0 mm 3 mps 743 mmHg 75%
    03:00 +4°C° 0 mm 3 mps 743 mmHg 76%
    04:00 +4°C° 0 mm 3 mps 743 mmHg 78%
    05:00 +3°C° 0 mm 3 mps 743 mmHg 79%
    06:00 +5°C° 0 mm 4 mps 743 mmHg 72%
    07:00 +7°C° 0 mm 4 mps 743 mmHg 65%
    08:00 +8°C° 0 mm 4 mps 743 mmHg 59%
    09:00 +11°C° 0 mm 4 mps 743 mmHg 51%
    10:00 +13°C° 0 mm 5 mps 743 mmHg 43%
    11:00 +15°C° 0 mm 5 mps 743 mmHg 36%
    12:00 +16°C° 0 mm 5 mps 743 mmHg 33%
    13:00 +17°C° 0 mm 5 mps 743 mmHg 30%
    14:00 +17°C° 0 mm 5 mps 742 mmHg 28%
    15:00 +17°C° 0 mm 5 mps 742 mmHg 30%
    16:00 +16°C° 0 mm 5 mps 742 mmHg 32%
    17:00 +15°C° 0 mm 5 mps 742 mmHg 35%
    18:00 +13°C° 0 mm 4 mps 742 mmHg 43%
    19:00 +11°C° 0 mm 3 mps 743 mmHg 51%
    20:00 +9°C° 0 mm 3 mps 743 mmHg 59%
    21:00 +9°C° 0 mm 3 mps 743 mmHg 62%
    22:00 +8°C° 0 mm 2 mps 743 mmHg 65%
    23:00 +7°C° 0 mm 2 mps 743 mmHg 68%

    20 September, Friday

    Time Temperature Precipitation Wind Pressure Humidity
    00:00 +7°C° 0 mm 2 mps 743 mmHg 71%
    01:00 +7°C° 0 mm 2 mps 743 mmHg 73%
    02:00 +6°C° 0 mm 2 mps 743 mmHg 75%
    03:00 +6°C° 0 mm 2 mps 743 mmHg 77%
    04:00 +6°C° 0 mm 2 mps 743 mmHg 78%
    05:00 +6°C° 0 mm 2 mps 743 mmHg 80%
    06:00 +7°C° 0 mm 2 mps 743 mmHg 73%
    07:00 +8°C° 0 mm 2 mps 743 mmHg 67%
    08:00 +10°C° 0 mm 3 mps 744 mmHg 60%
    09:00 +11°C° 0 mm 3 mps 744 mmHg 53%
    10:00 +13°C° 0 mm 3 mps 744 mmHg 46%
    11:00 +16°C° 0 mm 3 mps 744 mmHg 39%
    12:00 +16°C° 0 mm 3 mps 744 mmHg 36%
    13:00 +17°C° 0 mm 4 mps 743 mmHg 34%
    14:00 +17°C° 0 mm 4 mps 743 mmHg 31%
    15:00 +15°C° 0 mm 4 mps 743 mmHg 34%
    16:00 +14°C° 0 mm 5 mps 743 mmHg 37%
    17:00 +14°C° 0 mm 5 mps 743 mmHg 41%
    18:00 +12°C° 0 mm 5 mps 743 mmHg 44%
    19:00 +10°C° 0 mm 4 mps 744 mmHg 48%
    20:00 +8°C° 0 mm 4 mps 744 mmHg 52%
    21:00 +7°C° 0 mm 4 mps 744 mmHg 57%
    22:00 +6°C° 0 mm 4 mps 745 mmHg 63%
    23:00 +5°C° 0 mm 4 mps 745 mmHg 68%
    Show more